Location: Cheching
(60.0667°N, 164.2167°W)
Time: 14:07:41
(UTC+00:00)

NOAA 19 - Pass Details

Date: 18 January 2021
Orbit: 840 x 862 km, 99.2° (Epoch: 01 March)

Event Time Altitude Azimuth Distance (km) Brightness Sun altitude
Rises 05:45:49 0° 200° (SSW) 3,433 8.7 -22.4°
Reaches altitude 10° 05:48:34 10° 212° (SSW) 2,499 8.1 -22.8°
Maximum altitude 05:53:14 27° 269° (W) 1,599 7.3 -23.4°
Drops below altitude 10° 05:57:54 10° 327° (NNW) 2,504 8.1 -23.9°
Sets 06:00:40 0° 339° (NNW) 3,442 8.7 -24.3°
